TimeMST,TemperatureF,Dew PointF,Humidity,Sea Level PressureIn,VisibilityMPH,Wind Direction,Wind SpeedMPH,Gust SpeedMPH,PrecipitationIn,Events,Conditions,WindDirDegrees,DateUTC
12:53 AM,28.9,18.0,64,29.59,10.0,South,5.8,-,N/A,,Clear,190,2012-12-03 07:53:00
1:41 AM,50.0,24.8,37,29.61,10.0,NW,15.0,23.0,N/A,,Clear,320,2012-12-03 08:41:00
1:53 AM,61.0,27.0,27,29.52,10.0,NW,24.2,39.1,N/A,,Clear,310,2012-12-03 08:53:00
2:48 AM,62.6,28.4,27,29.64,3.0,WNW,35.7,46.0,N/A,,Haze,300,2012-12-03 09:48:00
2:53 AM,62.1,28.9,29,29.53,3.0,WNW,33.4,46.0,N/A,,Haze,290,2012-12-03 09:53:00
3:10 AM,60.8,28.4,29,29.65,10.0,WNW,27.6,40.3,N/A,,Scattered Clouds,300,2012-12-03 10:10:00
3:47 AM,60.8,30.2,31,29.69,1.5,North,-9999.0,-,N/A,,Haze,0,2012-12-03 10:47:00
3:51 AM,59.0,30.2,34,29.70,0.8,NW,39.1,54.1,0.00,Rain,Light Rain,310,2012-12-03 10:51:00
3:53 AM,59.0,30.0,33,29.61,0.8,WNW,34.5,54.1,0.00,Rain,Light Rain,300,2012-12-03 10:53:00
3:57 AM,57.2,30.2,36,29.71,1.2,NW,35.7,54.1,0.00,Rain,Light Rain,310,2012-12-03 10:57:00
4:06 AM,57.2,28.4,33,29.70,1.5,WNW,34.5,56.4,0.00,Rain,Light Rain,300,2012-12-03 11:06:00
4:13 AM,55.4,28.4,36,29.71,3.0,WNW,35.7,51.8,0.00,,Haze,300,2012-12-03 11:13:00
4:25 AM,55.4,26.6,33,29.71,3.0,WNW,31.1,46.0,0.00,,Haze,300,2012-12-03 11:25:00
4:53 AM,54.0,21.9,29,29.66,5.0,WNW,31.1,46.0,0.00,,Haze,300,2012-12-03 11:53:00
5:04 AM,53.6,21.2,28,29.74,8.0,NW,31.1,44.9,N/A,,Partly Cloudy,310,2012-12-03 12:04:00
5:53 AM,51.1,21.9,32,29.77,10.0,NW,24.2,35.7,N/A,,Clear,320,2012-12-03 12:53:00
6:53 AM,46.0,33.1,61,29.88,10.0,NNW,31.1,42.6,N/A,,Partly Cloudy,330,2012-12-03 13:53:00
8:53 AM,45.0,23.0,42,29.99,10.0,NW,15.0,-,N/A,,Clear,310,2012-12-03 15:53:00
9:53 AM,48.9,21.9,35,30.00,10.0,NNW,24.2,32.2,N/A,,Clear,340,2012-12-03 16:53:00
10:53 AM,51.1,18.0,27,30.02,10.0,NNW,23.0,33.4,N/A,,Clear,330,2012-12-03 17:53:00
12:53 PM,52.0,21.9,31,30.04,10.0,NW,17.3,24.2,N/A,,Clear,320,2012-12-03 19:53:00
1:53 PM,52.0,19.0,27,29.95,10.0,NNW,16.1,-,N/A,,Clear,330,2012-12-03 20:53:00
2:53 PM,52.0,15.1,23,29.97,10.0,NW,12.7,19.6,N/A,,Clear,320,2012-12-03 21:53:00
3:53 PM,45.0,15.1,30,30.01,10.0,North,4.6,-,N/A,,Clear,350,2012-12-03 22:53:00
4:53 PM,32.0,12.0,44,30.08,10.0,WNW,4.6,-,N/A,,Clear,290,2012-12-03 23:53:00
5:53 PM,39.9,12.9,33,30.08,10.0,NNW,5.8,-,N/A,,Clear,330,2012-12-04 00:53:00
6:53 PM,37.9,12.0,35,30.13,10.0,WNW,4.6,-,N/A,,Clear,300,2012-12-04 01:53:00
7:53 PM,28.0,10.0,47,30.19,10.0,WNW,3.5,-,N/A,,Clear,290,2012-12-04 02:53:00
8:53 PM,28.9,10.9,47,30.21,10.0,SW,13.8,-,N/A,,Clear,230,2012-12-04 03:53:00
9:53 PM,32.0,7.0,35,30.20,10.0,West,10.4,-,N/A,,Clear,280,2012-12-04 04:53:00
10:53 PM,32.0,6.1,34,30.21,10.0,WNW,15.0,-,N/A,,Clear,290,2012-12-04 05:53:00
11:53 PM,36.0,7.0,30,30.20,10.0,West,16.1,-,N/A,,Clear,280,2012-12-04 06:53:00